Home   Weather   Marquette   Past weeks
Flag for USA

Past Weather in Marquette, Michigan, USA — Yesterday and Last 2 Weeks

Now
36 °F

Passing clouds.


Feels Like: 36 °F
Forecast: 46 / 36 °F
Wind: No wind

Location: Sawyer Airport

Current Time: Oct 15, 2019 at 8:27:41 am

Latest Report: Oct 15, 2019 at 7:47 am


Visibility: 10 mi

Pressure: 29.91 "Hg

Humidity: 87%

Dew Point: 32 °F

Location of MarquetteLocation

Past Weather in Marquette — Graph

°F

Marquette Temperature Yesterday

Maximum temperature yesterday: 48 °F (at 4:46 pm)
Minimum temperature yesterday: 32 °F (at 6:47 am)
Average temperature yesterday: 37 °F

High & Low Weather Summary for the Past Weeks

 TemperatureHumidityPressure
High72 °F (Sep 30, 5:50 pm)100% (Sep 30, 6:47 am)30.48 "Hg (Sep 30, 6:47 am)
Low31 °F (Oct 8, 5:00 am)36% (Oct 7, 4:46 pm)29.56 "Hg (Oct 13, 2:19 am)
Average47 °F84%29.96 "Hg
* Reported Sep 30 6:02 am — Oct 15 6:47 am, Marquette. Weather by CustomWeather, © 2019

Note: Actual official high and low records may vary slightly from our data, if they occured in-between our weather recording intervals... More about our weather records

Advertising

Marquette Weather History for the Previous 24 Hours

Scroll right to see more
 ConditionsComfort  
Time TempWeatherWind HumidityBarometerVisibility
6:47 am
Tue, Oct 15
34 °FPassing clouds.No wind87%29.93 "Hg10 mi
6:03 am35 °FClear.3 mph86%29.94 "Hg10 mi
5:58 am35 °FClear.3 mph85%29.94 "Hg10 mi
5:38 am35 °FClear.No wind87%29.95 "Hg10 mi
5:00 am35 °FClear.No wind86%29.96 "Hg10 mi
3:58 am36 °FPassing clouds.No wind84%29.97 "Hg10 mi
3:39 am35 °FClear.5 mph84%29.97 "Hg10 mi
3:21 am35 °FClear.3 mph87%29.97 "Hg10 mi
3:03 am35 °FClear.3 mph85%29.98 "Hg10 mi
2:58 am35 °FClear.3 mph85%29.98 "Hg10 mi
2:39 am36 °FClear.5 mph85%29.97 "Hg10 mi
1:59 am37 °FClear.No wind82%29.97 "Hg10 mi
1:42 am37 °FClear.No wind81%29.97 "Hg10 mi
1:18 am38 °FPassing clouds.No wind80%29.97 "Hg10 mi
12:59 am37 °FMostly cloudy.5 mph82%29.97 "Hg10 mi
12:39 am38 °FPassing clouds.5 mph80%29.97 "Hg10 mi
12:21 am38 °FClear.6 mph78%29.97 "Hg10 mi
11:58 pm
Mon, Oct 14
38 °FClear.6 mph77%29.97 "Hg10 mi
11:39 pm38 °FClear.No wind78%29.97 "Hg10 mi
11:38 pm38 °FClear.No wind78%29.97 "Hg10 mi
11:19 pm39 °FClear.3 mph77%29.97 "Hg10 mi
11:00 pm40 °FClear.No wind73%29.97 "Hg10 mi
10:18 pm40 °FClear.3 mph76%29.96 "Hg10 mi
9:47 pm41 °FPassing clouds.No wind81%29.95 "Hg10 mi
8:47 pm43 °FPassing clouds.No wind71%29.94 "Hg10 mi
7:47 pm45 °FPassing clouds.No wind61%29.93 "Hg10 mi
6:47 pm46 °FPartly sunny.No wind57%29.92 "Hg10 mi
5:47 pm46 °FPartly sunny.6 mph53%29.91 "Hg10 mi
4:46 pm48 °FBroken clouds.13 mph50%29.91 "Hg10 mi
3:46 pm45 °FPartly sunny.14 mph57%29.91 "Hg10 mi
2:46 pm45 °FPartly sunny.14 mph61%29.91 "Hg10 mi
1:46 pm41 °FBroken clouds.14 mph70%29.90 "Hg10 mi
12:47 pm41 °FPartly sunny.15 mph70%29.90 "Hg10 mi
11:47 am39 °FPartly sunny.14 mph81%29.89 "Hg10 mi
11:12 am37 °FPartly sunny.14 mph87%29.88 "Hg10 mi
10:47 am39 °FPartly sunny.13 mph81%29.88 "Hg10 mi
9:47 am36 °FScattered clouds.10 mph93%29.86 "Hg10 mi
8:47 am34 °FSunny.8 mph93%29.84 "Hg10 mi
Weather by CustomWeather, © 2019

See weather overview